Time,TemperatureF,DewpointF,PressureIn,WindDirection,WindDirectionDegrees,WindSpeedMPH,WindSpeedGustMPH,Humidity,HourlyPrecipIn,Conditions,Clouds,dailyrainin,SoftwareType,DateUTC
2013-04-27 00:01:00,48.7,28.9,30.44,North,355,0.0,0.9,46,0.00,,,0.00,meteobridge,2013-04-27 04:01:00,
2013-04-27 00:02:00,48.7,28.9,30.43,NNW,342,0.0,0.9,46,0.00,,,0.00,meteobridge,2013-04-27 04:02:00,
2013-04-27 00:05:00,48.7,28.9,30.44,NNW,342,0.0,0.9,46,0.00,,,0.00,meteobridge,2013-04-27 04:05:00,
2013-04-27 00:07:00,48.6,28.2,30.44,NNW,342,0.0,0.9,45,0.00,,,0.00,meteobridge,2013-04-27 04:07:00,
2013-04-27 00:12:00,48.6,28.2,30.44,NNW,342,0.0,0.0,45,0.00,,,0.00,meteobridge,2013-04-27 04:12:00,
2013-04-27 00:18:00,48.6,28.2,30.44,NNW,342,0.0,0.0,45,0.00,,,0.00,meteobridge,2013-04-27 04:18:00,
2013-04-27 00:23:00,48.6,28.8,30.44,NNE,26,0.0,2.0,46,0.00,,,0.00,meteobridge,2013-04-27 04:23:00,
2013-04-27 00:28:00,48.4,28.0,30.45,NNE,21,0.0,0.9,45,0.00,,,0.00,meteobridge,2013-04-27 04:28:00,
2013-04-27 00:33:00,48.4,28.0,30.44,NNE,29,0.9,2.9,45,0.00,,,0.00,meteobridge,2013-04-27 04:33:00,
2013-04-27 00:39:00,48.2,27.9,30.44,North,355,0.0,2.0,45,0.00,,,0.00,meteobridge,2013-04-27 04:39:00,
2013-04-27 00:44:00,48.2,27.9,30.44,North,11,0.0,2.0,45,0.00,,,0.00,meteobridge,2013-04-27 04:44:00,
2013-04-27 00:49:00,48.0,27.7,30.44,North,11,0.0,0.0,45,0.00,,,0.00,meteobridge,2013-04-27 04:49:00,
2013-04-27 00:55:00,48.0,27.7,30.44,North,11,0.0,0.0,45,0.00,,,0.00,meteobridge,2013-04-27 04:55:00,
2013-04-27 01:00:00,47.8,28.0,30.44,North,9,0.0,0.0,46,0.00,,,0.00,meteobridge,2013-04-27 05:00:00,
2013-04-27 01:06:00,47.7,27.9,30.44,NNW,331,0.0,0.0,46,0.00,,,0.00,meteobridge,2013-04-27 05:06:00,
2013-04-27 01:11:00,47.5,28.2,30.44,NNW,331,0.0,0.0,47,0.00,,,0.00,meteobridge,2013-04-27 05:11:00,
2013-04-27 01:16:00,47.1,28.4,30.44,NNW,331,0.0,0.0,48,0.00,,,0.00,meteobridge,2013-04-27 05:16:00,
2013-04-27 01:21:00,46.9,27.7,30.44,NNW,331,0.0,0.0,47,0.00,,,0.00,meteobridge,2013-04-27 05:21:00,
2013-04-27 01:27:00,46.8,28.0,30.44,NNW,331,0.0,0.0,48,0.00,,,0.00,meteobridge,2013-04-27 05:27:00,
2013-04-27 01:32:00,46.6,28.4,30.44,NNW,331,0.0,0.0,49,0.00,,,0.00,meteobridge,2013-04-27 05:32:00,
2013-04-27 01:37:00,46.2,28.0,30.44,NNW,331,0.0,0.0,49,0.00,,,0.00,meteobridge,2013-04-27 05:37:00,
2013-04-27 01:43:00,46.0,28.4,30.44,NNW,331,0.0,0.0,50,0.00,,,0.00,meteobridge,2013-04-27 05:43:00,
2013-04-27 01:48:00,45.9,28.2,30.44,NNW,331,0.0,0.0,50,0.00,,,0.00,meteobridge,2013-04-27 05:48:00,
2013-04-27 01:53:00,45.7,28.6,30.44,NNW,331,0.0,0.0,51,0.00,,,0.00,meteobridge,2013-04-27 05:53:00,
2013-04-27 01:59:00,45.1,29.5,30.44,NNW,331,0.0,0.0,54,0.00,,,0.00,meteobridge,2013-04-27 05:59:00,
2013-04-27 02:04:00,45.0,29.8,30.44,NNW,331,0.0,0.0,55,0.00,,,0.00,meteobridge,2013-04-27 06:04:00,
2013-04-27 02:09:00,44.6,29.5,30.44,NNW,331,0.0,0.0,55,0.00,,,0.00,meteobridge,2013-04-27 06:09:00,
2013-04-27 02:15:00,44.2,28.6,30.43,NNW,331,0.0,0.0,54,0.00,,,0.00,meteobridge,2013-04-27 06:15:00,
2013-04-27 02:21:00,44.1,29.3,30.43,NNW,331,0.0,0.0,56,0.00,,,0.00,meteobridge,2013-04-27 06:21:00,
2013-04-27 02:26:00,43.7,29.1,30.43,NNW,331,0.0,0.0,56,0.00,,,0.00,meteobridge,2013-04-27 06:26:00,
2013-04-27 02:31:00,43.3,29.1,30.43,NNW,331,0.0,0.0,57,0.00,,,0.00,meteobridge,2013-04-27 06:31:00,
2013-04-27 02:36:00,43.2,29.3,30.43,NNW,331,0.0,0.0,58,0.00,,,0.00,meteobridge,2013-04-27 06:36:00,
2013-04-27 02:42:00,42.8,29.5,30.43,NNW,331,0.0,0.0,59,0.00,,,0.00,meteobridge,2013-04-27 06:42:00,
2013-04-27 02:48:00,42.6,29.7,30.42,NNW,331,0.0,0.0,60,0.00,,,0.00,meteobridge,2013-04-27 06:48:00,
2013-04-27 02:53:00,42.4,30.0,30.42,NNW,331,0.0,0.0,61,0.00,,,0.00,meteobridge,2013-04-27 06:53:00,
2013-04-27 02:59:00,42.1,30.0,30.42,NNW,331,0.0,0.0,62,0.00,,,0.00,meteobridge,2013-04-27 06:59:00,
2013-04-27 03:05:00,41.9,30.2,30.42,NNW,331,0.0,0.0,63,0.00,,,0.00,meteobridge,2013-04-27 07:05:00,
2013-04-27 03:10:00,41.7,30.4,30.42,NNW,331,0.0,0.0,64,0.00,,,0.00,meteobridge,2013-04-27 07:10:00,
2013-04-27 03:16:00,41.5,30.7,30.42,NNW,331,0.0,0.0,65,0.00,,,0.00,meteobridge,2013-04-27 07:16:00,
2013-04-27 03:21:00,41.4,30.6,30.42,NNW,331,0.0,0.0,65,0.00,,,0.00,meteobridge,2013-04-27 07:21:00,
2013-04-27 03:26:00,41.2,30.0,30.42,NNW,331,0.0,0.0,64,0.00,,,0.00,meteobridge,2013-04-27 07:26:00,
2013-04-27 03:31:00,41.0,30.2,30.42,NNW,331,0.0,0.0,65,0.00,,,0.00,meteobridge,2013-04-27 07:31:00,
2013-04-27 03:36:00,40.8,30.0,30.42,NNW,331,0.0,0.0,65,0.00,,,0.00,meteobridge,2013-04-27 07:36:00,
2013-04-27 03:42:00,40.6,30.2,30.42,NNW,331,0.0,0.0,66,0.00,,,0.00,meteobridge,2013-04-27 07:42:00,
2013-04-27 03:47:00,40.5,30.0,30.42,NNW,331,0.0,0.0,66,0.00,,,0.00,meteobridge,2013-04-27 07:47:00,
2013-04-27 03:52:00,40.5,30.0,30.42,NNW,331,0.0,0.0,66,0.00,,,0.00,meteobridge,2013-04-27 07:52:00,
2013-04-27 03:58:00,40.3,29.8,30.42,NNW,331,0.0,0.0,66,0.00,,,0.00,meteobridge,2013-04-27 07:58:00,
2013-04-27 04:03:00,39.9,29.5,30.42,NNW,331,0.0,0.0,66,0.00,,,0.00,meteobridge,2013-04-27 08:03:00,
2013-04-27 04:08:00,39.7,28.9,30.42,NNW,331,0.0,0.0,65,0.00,,,0.00,meteobridge,2013-04-27 08:08:00,
2013-04-27 04:14:00,39.7,29.7,30.42,NNW,331,0.0,0.0,67,0.00,,,0.00,meteobridge,2013-04-27 08:14:00,
2013-04-27 04:19:00,39.6,28.8,30.42,NNW,331,0.0,0.0,65,0.00,,,0.00,meteobridge,2013-04-27 08:19:00,
2013-04-27 04:24:00,39.4,28.9,30.42,NNW,331,0.0,0.0,66,0.00,,,0.00,meteobridge,2013-04-27 08:24:00,
2013-04-27 04:29:00,39.4,29.3,30.42,NNW,331,0.0,0.0,67,0.00,,,0.00,meteobridge,2013-04-27 08:29:00,
2013-04-27 04:34:00,39.0,29.3,30.42,NNW,331,0.0,0.0,68,0.00,,,0.00,meteobridge,2013-04-27 08:34:00,
2013-04-27 04:40:00,39.0,28.9,30.42,NNW,331,0.0,0.0,67,0.00,,,0.00,meteobridge,2013-04-27 08:40:00,
2013-04-27 04:45:00,38.8,29.5,30.42,NNW,331,0.0,0.0,69,0.00,,,0.00,meteobridge,2013-04-27 08:45:00,
2013-04-27 04:51:00,38.7,28.9,30.42,NNW,331,0.0,0.0,68,0.00,,,0.00,meteobridge,2013-04-27 08:51:00,
2013-04-27 04:56:00,38.5,28.8,30.42,NNW,331,0.0,0.0,68,0.00,,,0.00,meteobridge,2013-04-27 08:56:00,
2013-04-27 05:02:00,38.5,29.1,30.42,NNW,331,0.0,0.0,69,0.00,,,0.00,meteobridge,2013-04-27 09:02:00,
2013-04-27 05:07:00,38.3,29.3,30.42,NNW,331,0.0,0.0,70,0.00,,,0.00,meteobridge,2013-04-27 09:07:00,
2013-04-27 05:12:00,38.1,29.1,30.42,NNW,331,0.0,0.0,70,0.00,,,0.00,meteobridge,2013-04-27 09:12:00,
2013-04-27 05:18:00,38.1,29.5,30.42,NNW,331,0.0,0.0,71,0.00,,,0.00,meteobridge,2013-04-27 09:18:00,
2013-04-27 05:23:00,37.9,29.7,30.42,NNW,331,0.0,0.0,72,0.00,,,0.00,meteobridge,2013-04-27 09:23:00,
2013-04-27 05:28:00,37.8,28.9,30.42,NNW,331,0.0,0.0,70,0.00,,,0.00,meteobridge,2013-04-27 09:28:00,
2013-04-27 05:33:00,37.6,29.1,30.42,NNW,331,0.0,0.0,71,0.00,,,0.00,meteobridge,2013-04-27 09:33:00,
2013-04-27 05:39:00,37.6,29.1,30.42,NNW,331,0.0,0.0,71,0.00,,,0.00,meteobridge,2013-04-27 09:39:00,
2013-04-27 05:45:00,37.6,29.1,30.42,NNW,331,0.0,0.0,71,0.00,,,0.00,meteobridge,2013-04-27 09:45:00,
2013-04-27 05:50:00,37.4,29.1,30.42,NNW,331,0.0,0.0,72,0.00,,,0.00,meteobridge,2013-04-27 09:50:00,
2013-04-27 05:55:00,37.2,29.1,30.42,NNW,331,0.0,0.9,72,0.00,,,0.00,meteobridge,2013-04-27 09:55:00,
2013-04-27 06:00:00,37.2,29.1,30.42,NNW,331,0.0,0.9,72,0.00,,,0.00,meteobridge,2013-04-27 10:00:00,
2013-04-27 06:06:00,37.0,28.9,30.42,NNW,331,0.0,0.0,72,0.00,,,0.00,meteobridge,2013-04-27 10:06:00,
2013-04-27 06:11:00,37.0,28.9,30.42,NNW,331,0.0,0.0,72,0.00,,,0.00,meteobridge,2013-04-27 10:11:00,
2013-04-27 06:16:00,37.0,29.1,30.43,NNW,331,0.0,0.0,73,0.00,,,0.00,meteobridge,2013-04-27 10:16:00,
2013-04-27 06:21:00,37.0,29.1,30.43,NNW,331,0.0,0.0,73,0.00,,,0.00,meteobridge,2013-04-27 10:21:00,
2013-04-27 06:26:00,37.0,29.1,30.42,NNW,331,0.0,0.0,73,0.00,,,0.00,meteobridge,2013-04-27 10:26:00,
2013-04-27 06:32:00,37.0,29.5,30.42,NNW,331,0.0,0.0,74,0.00,,,0.00,meteobridge,2013-04-27 10:32:00,
2013-04-27 06:37:00,37.0,29.1,30.42,NNW,331,0.0,0.0,73,0.00,,,0.00,meteobridge,2013-04-27 10:37:00,
2013-04-27 06:42:00,37.2,29.1,30.43,NNW,331,0.0,0.0,72,0.00,,,0.00,meteobridge,2013-04-27 10:42:00,
2013-04-27 06:48:00,37.4,29.1,30.43,NNW,331,0.0,0.0,72,0.00,,,0.00,meteobridge,2013-04-27 10:48:00,
2013-04-27 06:53:00,37.6,29.1,30.43,NNW,331,0.0,0.0,71,0.00,,,0.00,meteobridge,2013-04-27 10:53:00,
2013-04-27 06:58:00,37.9,29.1,30.43,NNW,331,0.0,0.0,70,0.00,,,0.00,meteobridge,2013-04-27 10:58:00,
2013-04-27 07:03:00,38.1,28.9,30.43,NNW,331,0.0,0.0,69,0.00,,,0.00,meteobridge,2013-04-27 11:03:00,
2013-04-27 07:08:00,38.5,28.8,30.42,NNW,331,0.0,0.0,68,0.00,,,0.00,meteobridge,2013-04-27 11:08:00,
2013-04-27 07:14:00,38.7,29.7,30.42,NNW,331,0.0,0.0,70,0.00,,,0.00,meteobridge,2013-04-27 11:14:00,
2013-04-27 07:20:00,38.8,29.1,30.42,NNW,331,0.0,0.0,68,0.00,,,0.00,meteobridge,2013-04-27 11:20:00,
2013-04-27 07:25:00,39.2,29.5,30.42,NNW,331,0.0,0.0,68,0.00,,,0.00,meteobridge,2013-04-27 11:25:00,
2013-04-27 07:31:00,39.7,29.7,30.43,NNW,331,0.0,0.9,67,0.00,,,0.00,meteobridge,2013-04-27 11:31:00,
2013-04-27 07:36:00,40.6,29.8,30.43,NNW,331,0.0,0.0,65,0.00,,,0.00,meteobridge,2013-04-27 11:36:00,
2013-04-27 07:41:00,41.4,30.6,30.43,NNW,331,0.0,0.9,65,0.00,,,0.00,meteobridge,2013-04-27 11:41:00,
2013-04-27 07:47:00,42.3,30.6,30.43,NNW,331,0.0,0.0,63,0.00,,,0.00,meteobridge,2013-04-27 11:47:00,
2013-04-27 07:53:00,43.2,31.5,30.43,NNW,331,0.0,0.0,63,0.00,,,0.00,meteobridge,2013-04-27 11:53:00,
2013-04-27 07:58:00,44.1,30.7,30.43,NNW,331,0.0,2.0,59,0.00,,,0.00,meteobridge,2013-04-27 11:58:00,
2013-04-27 08:03:00,45.0,31.5,30.43,WSW,240,0.0,0.9,59,0.00,,,0.00,meteobridge,2013-04-27 12:03:00,
2013-04-27 08:09:00,45.7,31.3,30.43,WSW,253,0.0,0.9,57,0.00,,,0.00,meteobridge,2013-04-27 12:09:00,
2013-04-27 08:14:00,46.6,32.2,30.43,WNW,283,0.0,0.9,57,0.00,,,0.00,meteobridge,2013-04-27 12:14:00,
2013-04-27 08:19:00,47.3,31.1,30.43,NW,317,0.9,2.0,53,0.00,,,0.00,meteobridge,2013-04-27 12:19:00,
2013-04-27 08:25:00,47.8,31.1,30.43,NW,317,0.0,0.0,52,0.00,,,0.00,meteobridge,2013-04-27 12:25:00,
2013-04-27 08:30:00,48.4,31.6,30.43,WNW,295,0.0,0.9,52,0.00,,,0.00,meteobridge,2013-04-27 12:30:00,
2013-04-27 08:35:00,48.6,32.2,30.43,WNW,296,0.9,0.9,53,0.00,,,0.00,meteobridge,2013-04-27 12:35:00,
2013-04-27 08:41:00,49.3,32.4,30.43,North,5,0.9,0.9,52,0.00,,,0.00,meteobridge,2013-04-27 12:41:00,
2013-04-27 08:46:00,49.6,31.8,30.43,NNE,18,0.0,2.0,50,0.00,,,0.00,meteobridge,2013-04-27 12:46:00,
2013-04-27 08:52:00,49.8,31.5,30.43,NNE,30,0.0,0.9,49,0.00,,,0.00,meteobridge,2013-04-27 12:52:00,
2013-04-27 08:57:00,50.4,32.4,30.43,NE,34,0.0,0.0,50,0.00,,,0.00,meteobridge,2013-04-27 12:57:00,
2013-04-27 09:02:00,50.7,31.8,30.43,North,0,0.0,0.9,48,0.00,,,0.00,meteobridge,2013-04-27 13:02:00,
2013-04-27 09:08:00,51.3,31.1,30.43,NE,41,0.0,2.9,46,0.00,,,0.00,meteobridge,2013-04-27 13:08:00,
2013-04-27 09:13:00,51.6,33.1,30.42,East,88,0.0,0.9,49,0.00,,,0.00,meteobridge,2013-04-27 13:13:00,
2013-04-27 09:18:00,52.3,33.3,30.42,SSE,153,0.0,0.9,48,0.00,,,0.00,meteobridge,2013-04-27 13:18:00,
2013-04-27 09:23:00,52.9,33.3,30.42,ENE,71,0.0,0.9,47,0.00,,,0.00,meteobridge,2013-04-27 13:23:00,
2013-04-27 09:28:00,53.2,34.0,30.42,NNE,14,0.9,2.0,48,0.00,,,0.00,meteobridge,2013-04-27 13:28:00,
2013-04-27 09:33:00,53.4,33.1,30.42,NNE,16,0.9,2.0,46,0.00,,,0.00,meteobridge,2013-04-27 13:33:00,
2013-04-27 09:38:00,53.8,32.4,30.42,NNE,20,0.9,2.0,44,0.00,,,0.00,meteobridge,2013-04-27 13:38:00,
2013-04-27 09:44:00,54.3,32.9,30.42,NE,42,0.9,2.9,44,0.00,,,0.00,meteobridge,2013-04-27 13:44:00,
2013-04-27 09:49:00,54.9,32.2,30.42,ENE,67,0.9,0.9,42,0.00,,,0.00,meteobridge,2013-04-27 13:49:00,
2013-04-27 09:54:00,55.2,33.1,30.42,NNW,339,0.0,0.9,43,0.00,,,0.00,meteobridge,2013-04-27 13:54:00,
2013-04-27 10:00:00,55.2,32.0,30.42,NW,317,0.9,2.0,41,0.00,,,0.00,meteobridge,2013-04-27 14:00:00,
2013-04-27 10:05:00,55.4,32.7,30.42,NE,49,0.0,0.9,42,0.00,,,0.00,meteobridge,2013-04-27 14:05:00,
2013-04-27 10:10:00,55.8,32.4,30.42,NE,47,0.0,2.0,41,0.00,,,0.00,meteobridge,2013-04-27 14:10:00,
2013-04-27 10:15:00,55.9,33.3,30.42,NNE,24,0.9,2.0,42,0.00,,,0.00,meteobridge,2013-04-27 14:15:00,
2013-04-27 10:20:00,56.1,32.7,30.42,East,87,0.0,4.9,41,0.00,,,0.00,meteobridge,2013-04-27 14:20:00,
2013-04-27 10:26:00,56.5,32.4,30.42,NE,43,0.0,0.9,40,0.00,,,0.00,meteobridge,2013-04-27 14:26:00,
2013-04-27 10:31:00,56.7,32.0,30.42,NE,34,2.0,2.0,39,0.00,,,0.00,meteobridge,2013-04-27 14:31:00,
2013-04-27 10:36:00,56.8,32.7,30.42,NNE,28,0.0,2.9,40,0.00,,,0.00,meteobridge,2013-04-27 14:36:00,
2013-04-27 10:42:00,57.0,32.9,30.42,NNE,28,0.0,0.9,40,0.00,,,0.00,meteobridge,2013-04-27 14:42:00,
2013-04-27 10:47:00,57.0,32.4,30.42,NE,41,2.0,2.0,39,0.00,,,0.00,meteobridge,2013-04-27 14:47:00,
2013-04-27 10:52:00,57.2,32.5,30.42,NNE,19,0.9,2.9,39,0.00,,,0.00,meteobridge,2013-04-27 14:52:00,
2013-04-27 10:57:00,57.4,32.0,30.42,East,80,0.9,2.9,38,0.00,,,0.00,meteobridge,2013-04-27 14:57:00,
2013-04-27 11:02:00,57.6,30.7,30.42,ESE,118,0.0,0.9,36,0.00,,,0.00,meteobridge,2013-04-27 15:02:00,
2013-04-27 11:08:00,57.6,29.5,30.42,ENE,72,0.0,0.9,34,0.00,,,0.00,meteobridge,2013-04-27 15:08:00,
2013-04-27 11:13:00,57.7,30.9,30.42,North,355,0.0,2.0,36,0.00,,,0.00,meteobridge,2013-04-27 15:13:00,
2013-04-27 11:18:00,57.7,30.2,30.42,NNE,26,0.0,2.0,35,0.00,,,0.00,meteobridge,2013-04-27 15:18:00,
2013-04-27 11:23:00,58.1,29.1,30.42,ESE,103,0.0,2.0,33,0.00,,,0.00,meteobridge,2013-04-27 15:23:00,
2013-04-27 11:28:00,58.5,30.2,30.42,ENE,67,0.9,0.9,34,0.00,,,0.00,meteobridge,2013-04-27 15:28:00,
2013-04-27 11:34:00,58.6,28.9,30.41,East,101,0.0,0.9,32,0.00,,,0.00,meteobridge,2013-04-27 15:34:00,
2013-04-27 11:39:00,58.6,29.7,30.41,NE,40,2.0,2.9,33,0.00,,,0.00,meteobridge,2013-04-27 15:39:00,
2013-04-27 11:44:00,59.0,30.7,30.41,East,87,0.0,0.9,34,0.00,,,0.00,meteobridge,2013-04-27 15:44:00,
2013-04-27 11:49:00,59.0,29.1,30.41,East,97,0.0,0.9,32,0.00,,,0.00,meteobridge,2013-04-27 15:49:00,
2013-04-27 11:54:00,58.8,29.8,30.40,NNE,14,0.9,0.9,33,0.00,,,0.00,meteobridge,2013-04-27 15:54:00,
2013-04-27 11:59:00,59.0,28.4,30.40,East,101,0.0,2.0,31,0.00,,,0.00,meteobridge,2013-04-27 15:59:00,
2013-04-27 12:05:00,59.2,30.0,30.40,WNW,303,2.0,2.9,33,0.00,,,0.00,meteobridge,2013-04-27 16:05:00,
2013-04-27 12:10:00,59.4,27.1,30.40,SSW,199,2.0,2.9,29,0.00,,,0.00,meteobridge,2013-04-27 16:10:00,
2013-04-27 12:15:00,59.5,27.3,30.40,NE,42,0.0,4.0,29,0.00,,,0.00,meteobridge,2013-04-27 16:15:00,
2013-04-27 12:20:00,59.7,27.3,30.40,ESE,108,2.0,2.0,29,0.00,,,0.00,meteobridge,2013-04-27 16:20:00,
2013-04-27 12:25:00,60.3,27.0,30.39,NNE,28,0.0,2.0,28,0.00,,,0.00,meteobridge,2013-04-27 16:25:00,
2013-04-27 12:31:00,60.8,28.4,30.39,ENE,73,0.0,0.9,29,0.00,,,0.00,meteobridge,2013-04-27 16:31:00,
2013-04-27 12:36:00,61.9,27.5,30.38,ENE,69,0.0,2.0,27,0.00,,,0.00,meteobridge,2013-04-27 16:36:00,
2013-04-27 12:41:00,63.1,27.7,30.38,North,11,0.0,2.0,26,0.00,,,0.00,meteobridge,2013-04-27 16:41:00,
2013-04-27 12:46:00,64.6,28.9,30.38,NNE,28,2.0,2.9,26,0.00,,,0.00,meteobridge,2013-04-27 16:46:00,
2013-04-27 12:51:00,65.1,28.4,30.38,East,82,0.9,2.0,25,0.00,,,0.00,meteobridge,2013-04-27 16:51:00,
2013-04-27 12:56:00,64.9,30.2,30.37,NE,38,0.9,0.9,27,0.00,,,0.00,meteobridge,2013-04-27 16:56:00,
2013-04-27 13:02:00,65.7,25.7,30.37,WNW,298,2.0,2.9,22,0.00,,,0.00,meteobridge,2013-04-27 17:02:00,
2013-04-27 13:07:00,65.8,28.9,30.37,East,90,0.9,2.0,25,0.00,,,0.00,meteobridge,2013-04-27 17:07:00,
2013-04-27 13:12:00,66.0,30.2,30.37,North,5,0.0,0.9,26,0.00,,,0.00,meteobridge,2013-04-27 17:12:00,
2013-04-27 13:18:00,66.9,27.9,30.37,ENE,70,0.9,0.9,23,0.00,,,0.00,meteobridge,2013-04-27 17:18:00,
2013-04-27 13:23:00,67.5,28.4,30.37,East,97,2.0,2.9,23,0.00,,,0.00,meteobridge,2013-04-27 17:23:00,
2013-04-27 13:28:00,67.6,29.5,30.37,ENE,63,0.0,2.0,24,0.00,,,0.00,meteobridge,2013-04-27 17:28:00,
2013-04-27 13:34:00,68.2,27.9,30.36,North,11,2.0,2.9,22,0.00,,,0.00,meteobridge,2013-04-27 17:34:00,
2013-04-27 13:39:00,67.8,26.4,30.36,ESE,110,0.0,2.0,21,0.00,,,0.00,meteobridge,2013-04-27 17:39:00,
2013-04-27 13:44:00,67.5,26.2,30.36,ESE,115,0.0,2.0,21,0.00,,,0.00,meteobridge,2013-04-27 17:44:00,
2013-04-27 13:49:00,67.6,26.2,30.36,NNE,22,0.0,2.9,21,0.00,,,0.00,meteobridge,2013-04-27 17:49:00,
2013-04-27 13:55:00,67.8,25.3,30.36,ESE,106,0.0,2.0,20,0.00,,,0.00,meteobridge,2013-04-27 17:55:00,
2013-04-27 14:00:00,68.2,27.9,30.36,NNE,24,2.0,4.9,22,0.00,,,0.00,meteobridge,2013-04-27 18:00:00,
2013-04-27 14:06:00,68.5,24.6,30.36,NE,34,0.9,2.0,19,0.00,,,0.00,meteobridge,2013-04-27 18:06:00,
2013-04-27 14:11:00,69.1,23.7,30.35,SE,146,2.0,4.9,18,0.00,,,0.00,meteobridge,2013-04-27 18:11:00,
2013-04-27 14:16:00,68.7,26.1,30.35,East,82,0.0,0.9,20,0.00,,,0.00,meteobridge,2013-04-27 18:16:00,
2013-04-27 14:21:00,68.5,28.2,30.35,NNE,26,0.9,2.0,22,0.00,,,0.00,meteobridge,2013-04-27 18:21:00,
2013-04-27 14:26:00,68.9,28.4,30.34,NNE,24,2.0,2.9,22,0.00,,,0.00,meteobridge,2013-04-27 18:26:00,
2013-04-27 14:32:00,69.4,27.9,30.34,North,355,0.0,2.0,21,0.00,,,0.00,meteobridge,2013-04-27 18:32:00,
2013-04-27 14:37:00,70.7,23.7,30.34,North,10,0.0,2.9,17,0.00,,,0.00,meteobridge,2013-04-27 18:37:00,
2013-04-27 14:42:00,71.6,24.4,30.34,NW,306,2.0,4.9,17,0.00,,,0.00,meteobridge,2013-04-27 18:42:00,
2013-04-27 14:47:00,71.4,24.3,30.34,NNW,342,0.9,4.0,17,0.00,,,0.00,meteobridge,2013-04-27 18:47:00,
2013-04-27 14:53:00,71.2,28.0,30.34,NNW,336,0.0,2.0,20,0.00,,,0.00,meteobridge,2013-04-27 18:53:00,
2013-04-27 14:58:00,71.4,22.8,30.33,NW,318,0.0,2.9,16,0.00,,,0.00,meteobridge,2013-04-27 18:58:00,
2013-04-27 15:03:00,71.4,24.3,30.33,NW,319,0.0,2.0,17,0.00,,,0.00,meteobridge,2013-04-27 19:03:00,
2013-04-27 15:08:00,71.4,29.5,30.33,NW,312,2.0,4.0,21,0.00,,,0.00,meteobridge,2013-04-27 19:08:00,
2013-04-27 15:14:00,71.4,27.0,30.33,NNW,339,0.0,0.9,19,0.00,,,0.00,meteobridge,2013-04-27 19:14:00,
2013-04-27 15:19:00,71.8,26.1,30.32,NNE,21,0.9,0.9,18,0.00,,,0.00,meteobridge,2013-04-27 19:19:00,
2013-04-27 15:24:00,71.8,26.1,30.32,NE,43,0.0,2.9,18,0.00,,,0.00,meteobridge,2013-04-27 19:24:00,
2013-04-27 15:29:00,71.8,26.1,30.32,NW,325,0.9,2.0,18,0.00,,,0.00,meteobridge,2013-04-27 19:29:00,
2013-04-27 15:35:00,72.0,26.1,30.32,NNE,24,0.9,2.9,18,0.00,,,0.00,meteobridge,2013-04-27 19:35:00,
2013-04-27 15:40:00,71.8,23.2,30.32,NNE,28,0.0,2.0,16,0.00,,,0.00,meteobridge,2013-04-27 19:40:00,
2013-04-27 15:45:00,71.4,22.8,30.31,NE,51,0.0,2.0,16,0.00,,,0.00,meteobridge,2013-04-27 19:45:00,
2013-04-27 15:51:00,70.5,26.2,30.31,NNW,344,0.9,2.9,19,0.00,,,0.00,meteobridge,2013-04-27 19:51:00,
2013-04-27 15:56:00,70.0,23.2,30.31,WNW,284,0.9,2.0,17,0.00,,,0.00,meteobridge,2013-04-27 19:56:00,
2013-04-27 16:01:00,69.3,26.4,30.30,North,355,0.0,0.9,20,0.00,,,0.00,meteobridge,2013-04-27 20:01:00,
2013-04-27 16:06:00,69.3,23.9,30.31,NNE,19,0.0,2.0,18,0.00,,,0.00,meteobridge,2013-04-27 20:06:00,
2013-04-27 16:12:00,69.3,22.6,30.30,NNE,24,0.9,0.9,17,0.00,,,0.00,meteobridge,2013-04-27 20:12:00,
2013-04-27 16:17:00,68.9,25.0,30.30,NE,42,0.0,2.0,19,0.00,,,0.00,meteobridge,2013-04-27 20:17:00,
2013-04-27 16:23:00,68.9,29.7,30.30,NE,38,0.0,4.0,23,0.00,,,0.00,meteobridge,2013-04-27 20:23:00,
2013-04-27 16:28:00,69.1,26.2,30.30,NE,40,2.0,4.9,20,0.00,,,0.00,meteobridge,2013-04-27 20:28:00,
2013-04-27 16:34:00,69.1,26.2,30.30,NE,55,0.9,2.0,20,0.00,,,0.00,meteobridge,2013-04-27 20:34:00,
2013-04-27 16:39:00,69.1,26.2,30.30,NE,43,0.9,6.0,20,0.00,,,0.00,meteobridge,2013-04-27 20:39:00,
2013-04-27 16:44:00,68.9,26.2,30.30,NNW,334,0.9,4.0,20,0.00,,,0.00,meteobridge,2013-04-27 20:44:00,
2013-04-27 16:49:00,68.7,28.4,30.30,NNW,328,0.9,4.0,22,0.00,,,0.00,meteobridge,2013-04-27 20:49:00,
2013-04-27 16:55:00,68.5,27.1,30.30,NE,36,0.0,2.0,21,0.00,,,0.00,meteobridge,2013-04-27 20:55:00,
2013-04-27 17:00:00,68.7,27.1,30.30,NW,317,0.9,2.0,21,0.00,,,0.00,meteobridge,2013-04-27 21:00:00,
2013-04-27 17:05:00,69.1,29.7,30.30,NNW,346,0.0,2.0,23,0.00,,,0.00,meteobridge,2013-04-27 21:05:00,
2013-04-27 17:10:00,69.3,28.8,30.29,SE,128,0.9,2.0,22,0.00,,,0.00,meteobridge,2013-04-27 21:10:00,
2013-04-27 17:15:00,69.1,30.7,30.29,WNW,299,0.0,2.0,24,0.00,,,0.00,meteobridge,2013-04-27 21:15:00,
2013-04-27 17:21:00,69.3,28.8,30.29,NNE,15,0.0,0.9,22,0.00,,,0.00,meteobridge,2013-04-27 21:21:00,
2013-04-27 17:26:00,69.3,30.9,30.29,NE,36,0.0,2.0,24,0.00,,,0.00,meteobridge,2013-04-27 21:26:00,
2013-04-27 17:31:00,69.4,28.9,30.29,North,11,2.0,2.0,22,0.00,,,0.00,meteobridge,2013-04-27 21:31:00,
2013-04-27 17:36:00,69.4,31.1,30.29,NW,323,0.9,4.0,24,0.00,,,0.00,meteobridge,2013-04-27 21:36:00,
2013-04-27 17:41:00,69.4,31.1,30.29,NNW,339,0.9,2.0,24,0.00,,,0.00,meteobridge,2013-04-27 21:41:00,
2013-04-27 17:46:00,69.4,27.9,30.29,NNE,18,0.0,2.0,21,0.00,,,0.00,meteobridge,2013-04-27 21:46:00,
2013-04-27 17:51:00,69.3,29.8,30.29,NNE,28,0.0,2.9,23,0.00,,,0.00,meteobridge,2013-04-27 21:51:00,
2013-04-27 17:57:00,69.1,28.6,30.29,East,101,0.9,2.0,22,0.00,,,0.00,meteobridge,2013-04-27 21:57:00,
2013-04-27 18:02:00,68.9,30.6,30.29,NNE,12,0.0,0.9,24,0.00,,,0.00,meteobridge,2013-04-27 22:02:00,
2013-04-27 18:08:00,68.7,29.5,30.29,NW,305,0.9,2.9,23,0.00,,,0.00,meteobridge,2013-04-27 22:08:00,
2013-04-27 18:13:00,68.7,27.1,30.29,WNW,301,0.0,0.9,21,0.00,,,0.00,meteobridge,2013-04-27 22:13:00,
2013-04-27 18:18:00,68.5,29.3,30.29,WNW,303,0.9,0.9,23,0.00,,,0.00,meteobridge,2013-04-27 22:18:00,
2013-04-27 18:23:00,68.5,29.3,30.29,NNW,340,0.0,2.0,23,0.00,,,0.00,meteobridge,2013-04-27 22:23:00,
2013-04-27 18:29:00,68.4,29.1,30.29,NW,322,0.9,0.9,23,0.00,,,0.00,meteobridge,2013-04-27 22:29:00,
2013-04-27 18:34:00,68.2,28.9,30.29,North,5,0.0,2.0,23,0.00,,,0.00,meteobridge,2013-04-27 22:34:00,
2013-04-27 18:39:00,67.8,30.7,30.29,North,5,0.0,0.9,25,0.00,,,0.00,meteobridge,2013-04-27 22:39:00,
2013-04-27 18:44:00,67.6,31.5,30.29,North,5,0.0,0.9,26,0.00,,,0.00,meteobridge,2013-04-27 22:44:00,
2013-04-27 18:50:00,67.5,31.5,30.29,NNE,18,0.0,0.9,26,0.00,,,0.00,meteobridge,2013-04-27 22:50:00,
2013-04-27 18:55:00,66.9,30.0,30.29,NNE,18,0.0,0.9,25,0.00,,,0.00,meteobridge,2013-04-27 22:55:00,
2013-04-27 19:00:00,66.6,30.6,30.29,SSW,201,2.9,4.0,26,0.00,,,0.00,meteobridge,2013-04-27 23:00:00,
2013-04-27 19:06:00,65.7,25.7,30.29,South,190,2.0,4.0,22,0.00,,,0.00,meteobridge,2013-04-27 23:06:00,
2013-04-27 19:11:00,64.6,25.9,30.29,SSW,213,0.0,0.9,23,0.00,,,0.00,meteobridge,2013-04-27 23:11:00,
2013-04-27 19:16:00,63.9,24.3,30.29,NE,39,2.9,4.9,22,0.00,,,0.00,meteobridge,2013-04-27 23:16:00,
2013-04-27 19:21:00,63.5,25.0,30.29,South,177,0.0,2.0,23,0.00,,,0.00,meteobridge,2013-04-27 23:21:00,
2013-04-27 19:26:00,63.1,24.8,30.29,ESE,102,0.9,0.9,23,0.00,,,0.00,meteobridge,2013-04-27 23:26:00,
2013-04-27 19:31:00,62.4,26.1,30.29,SW,219,2.0,2.9,25,0.00,,,0.00,meteobridge,2013-04-27 23:31:00,
2013-04-27 19:37:00,61.7,26.4,30.29,SW,231,0.9,2.9,26,0.00,,,0.00,meteobridge,2013-04-27 23:37:00,
2013-04-27 19:42:00,61.0,28.6,30.29,SSW,192,0.0,0.9,29,0.00,,,0.00,meteobridge,2013-04-27 23:42:00,
2013-04-27 19:47:00,60.4,29.7,30.29,West,274,0.0,0.9,31,0.00,,,0.00,meteobridge,2013-04-27 23:47:00,
2013-04-27 19:52:00,59.7,29.8,30.30,SSW,192,0.9,2.9,32,0.00,,,0.00,meteobridge,2013-04-27 23:52:00,
2013-04-27 19:58:00,59.2,30.7,30.30,SW,218,0.0,2.0,34,0.00,,,0.00,meteobridge,2013-04-27 23:58:00,
2013-04-27 20:03:00,58.6,30.4,30.30,SSW,203,2.0,2.0,34,0.00,,,0.00,meteobridge,2013-04-28 00:03:00,
2013-04-27 20:09:00,58.3,30.7,30.30,SSW,200,0.0,0.9,35,0.00,,,0.00,meteobridge,2013-04-28 00:09:00,
2013-04-27 20:14:00,57.9,30.4,30.30,SSE,159,0.0,2.9,35,0.00,,,0.00,meteobridge,2013-04-28 00:14:00,
2013-04-27 20:19:00,57.7,30.9,30.30,SSW,193,0.0,0.0,36,0.00,,,0.00,meteobridge,2013-04-28 00:19:00,
2013-04-27 20:24:00,57.4,30.0,30.30,SW,220,0.0,2.9,35,0.00,,,0.00,meteobridge,2013-04-28 00:24:00,
2013-04-27 20:30:00,57.0,29.7,30.30,SSW,199,0.0,2.9,35,0.00,,,0.00,meteobridge,2013-04-28 00:30:00,
2013-04-27 20:35:00,56.8,30.2,30.30,South,190,4.9,6.9,36,0.00,,,0.00,meteobridge,2013-04-28 00:35:00,
2013-04-27 20:40:00,56.7,30.0,30.30,South,185,2.9,2.9,36,0.00,,,0.00,meteobridge,2013-04-28 00:40:00,
2013-04-27 20:45:00,56.5,30.6,30.30,SW,215,0.0,4.0,37,0.00,,,0.00,meteobridge,2013-04-28 00:45:00,
2013-04-27 20:50:00,56.3,30.4,30.31,SSW,211,4.0,4.0,37,0.00,,,0.00,meteobridge,2013-04-28 00:50:00,
2013-04-27 20:55:00,56.1,30.2,30.31,ENE,76,0.0,2.0,37,0.00,,,0.00,meteobridge,2013-04-28 00:55:00,
2013-04-27 21:01:00,55.9,30.7,30.31,WSW,249,0.9,2.9,38,0.00,,,0.00,meteobridge,2013-04-28 01:01:00,
2013-04-27 21:06:00,55.8,29.8,30.32,North,5,0.0,0.9,37,0.00,,,0.00,meteobridge,2013-04-28 01:06:00,
2013-04-27 21:12:00,55.8,30.6,30.32,SSW,200,0.9,2.0,38,0.00,,,0.00,meteobridge,2013-04-28 01:12:00,
2013-04-27 21:17:00,55.6,30.4,30.32,North,5,0.9,0.9,38,0.00,,,0.00,meteobridge,2013-04-28 01:17:00,
2013-04-27 21:22:00,55.4,31.5,30.32,North,5,0.0,0.0,40,0.00,,,0.00,meteobridge,2013-04-28 01:22:00,
2013-04-27 21:28:00,55.0,30.6,30.33,North,5,0.0,0.0,39,0.00,,,0.00,meteobridge,2013-04-28 01:28:00,
2013-04-27 21:33:00,55.0,31.1,30.33,WNW,290,0.0,2.0,40,0.00,,,0.00,meteobridge,2013-04-28 01:33:00,
2013-04-27 21:38:00,54.9,31.6,30.33,WNW,290,0.0,0.0,41,0.00,,,0.00,meteobridge,2013-04-28 01:38:00,
2013-04-27 21:43:00,54.5,31.3,30.33,WNW,290,0.0,0.0,41,0.00,,,0.00,meteobridge,2013-04-28 01:43:00,
2013-04-27 21:48:00,54.1,30.9,30.33,WNW,290,0.0,0.0,41,0.00,,,0.00,meteobridge,2013-04-28 01:48:00,
2013-04-27 21:54:00,54.0,31.5,30.33,WNW,290,0.0,0.0,42,0.00,,,0.00,meteobridge,2013-04-28 01:54:00,
2013-04-27 21:59:00,53.8,31.8,30.33,WNW,290,0.0,0.0,43,0.00,,,0.00,meteobridge,2013-04-28 01:59:00,
2013-04-27 22:05:00,53.6,32.2,30.34,WNW,290,0.0,0.0,44,0.00,,,0.00,meteobridge,2013-04-28 02:05:00,
2013-04-27 22:10:00,53.4,32.5,30.34,WNW,291,0.0,0.0,45,0.00,,,0.00,meteobridge,2013-04-28 02:10:00,
2013-04-27 22:15:00,53.2,32.4,30.34,WNW,291,0.0,0.0,45,0.00,,,0.00,meteobridge,2013-04-28 02:15:00,
2013-04-27 22:21:00,53.1,32.4,30.34,WNW,291,0.0,0.0,45,0.00,,,0.00,meteobridge,2013-04-28 02:21:00,
2013-04-27 22:26:00,52.9,32.7,30.34,WNW,291,0.0,0.0,46,0.00,,,0.00,meteobridge,2013-04-28 02:26:00,
2013-04-27 22:32:00,52.5,32.4,30.34,WNW,291,0.0,0.0,46,0.00,,,0.00,meteobridge,2013-04-28 02:32:00,
2013-04-27 22:38:00,52.3,32.7,30.34,WNW,291,0.0,0.0,47,0.00,,,0.00,meteobridge,2013-04-28 02:38:00,
2013-04-27 22:43:00,52.2,32.5,30.34,WNW,291,0.0,0.0,47,0.00,,,0.00,meteobridge,2013-04-28 02:43:00,
2013-04-27 22:48:00,51.8,32.7,30.33,WNW,291,0.0,0.0,48,0.00,,,0.00,meteobridge,2013-04-28 02:48:00,
2013-04-27 22:53:00,51.6,32.5,30.33,WNW,289,0.0,0.0,48,0.00,,,0.00,meteobridge,2013-04-28 02:53:00,
2013-04-27 22:59:00,51.4,32.4,30.33,WNW,290,0.0,0.0,48,0.00,,,0.00,meteobridge,2013-04-28 02:59:00,
2013-04-27 23:04:00,51.3,32.7,30.33,WNW,290,0.0,0.0,49,0.00,,,0.00,meteobridge,2013-04-28 03:04:00,
2013-04-27 23:10:00,51.1,32.5,30.33,WNW,290,0.0,0.0,49,0.00,,,0.00,meteobridge,2013-04-28 03:10:00,
2013-04-27 23:15:00,50.7,33.3,30.33,WNW,290,0.0,0.0,51,0.00,,,0.00,meteobridge,2013-04-28 03:15:00,
2013-04-27 23:20:00,50.5,33.1,30.33,WNW,290,0.0,0.0,51,0.00,,,0.00,meteobridge,2013-04-28 03:20:00,
2013-04-27 23:26:00,50.4,33.4,30.33,WNW,290,0.0,0.0,52,0.00,,,0.00,meteobridge,2013-04-28 03:26:00,
2013-04-27 23:31:00,50.4,33.8,30.33,WNW,290,0.0,0.0,53,0.00,,,0.00,meteobridge,2013-04-28 03:31:00,
2013-04-27 23:36:00,50.2,33.6,30.33,WNW,290,0.0,0.0,53,0.00,,,0.00,meteobridge,2013-04-28 03:36:00,
2013-04-27 23:41:00,49.8,33.4,30.33,WNW,290,0.0,0.0,53,0.00,,,0.00,meteobridge,2013-04-28 03:41:00,
2013-04-27 23:46:00,49.6,34.2,30.33,WNW,290,0.0,0.0,55,0.00,,,0.00,meteobridge,2013-04-28 03:46:00,
2013-04-27 23:51:00,49.5,34.0,30.33,WNW,290,0.0,0.0,55,0.00,,,0.00,meteobridge,2013-04-28 03:51:00,
2013-04-27 23:57:00,49.5,34.3,30.33,WNW,290,0.0,0.0,56,0.00,,,0.00,meteobridge,2013-04-28 03:57:00,